La Paz, Mexico

2:46 PM MDT on July 28, 2015 (GMT -0600)
Gen Manuel Marquez De Leon | | Change Station
CLOSE
Current Station
Airport
Location: La Paz,
Elevation: 69 ft
Nearby Weather Stations

Elev 69 ft 24.07 °N, 110.36 °W | Updated 1 hour ago

Partly Cloudy
Partly Cloudy
91 °F
Feels Like 93 °F
N
14
Wind Variable Wind from North

Today
High -- | Low -- °F
--% Chance of Precip.
Yesterday
High -- | Low -- °F
Precip. -- in
6:48 AM 8:06 PM
Waxing Gibbous, 91% visible
Pressure 29.84 in
Visibility 10.0 miles
Clouds Few 4000 ft
Heat Index 93 °F
Dew Point 64 °F
Humidity 41%
Rainfall 0.00 in
Snow Depth Not available.
UV 12 out of 12
Pollen Not available.
Air Quality Not available.
Flu Activity Not available.
METAR MMLP 281941Z 36012KT 10SM FEW040 33/18 A2984 RMK 8/100

More Conditions Fewer Conditions

Pressure 29.84 in
Visibility 10.0 miles
Clouds Few 4000 ft
Heat Index 93 °F
Dew Point 64 °F
Humidity 41%
Rainfall 0.00 in
Snow Depth Not available.
UV 12 out of 12
Pollen Not available.
Air Quality Not available.
Flu Activity Not available.
METAR MMLP 281941Z 36012KT 10SM FEW040 33/18 A2984 RMK 8/100

More Conditions Fewer Conditions

10-Day Weather Forecast

×

Almanac

Astronomy

Jul. 28, 2015 Rise Set
Actual Time
Civil Twilight
Nautical Twilight
Astronomical Twilight
Moon
Length of Visible Light
Length of Day
Tomorrow will be .
, % of the Moon is Illuminated

Today's Extremes

Country Highs Country Lows

Community

WunderPhotos

Upload Photos

1,841,942 photos uploaded!

WunderBlogs® & News

Nearby

Air Quality

  Air Quality AQ Index Pollutant
Not available.

Snow Depth

Station Depth Elevation

Earthquake Activity

City Distance Mag. Time & Date
Minimum magnitude displayed is 2.5.

Coastal Water Temperatures

Place Temperature

Stations

Nearby Weather Stations

Station Location Temp. Windchill Dew Point Humidity Wind Precip. Elev Updated Type